Time,TemperatureF,DewpointF,PressureIn,WindDirection,WindDirectionDegrees,WindSpeedMPH,WindSpeedGustMPH,Humidity,HourlyPrecipIn,Conditions,Clouds,dailyrainin,SolarRadiationWatts/m^2,SoftwareType,DateUTC
2013-09-12 00:02:00,68.0,45.0,-100.00,SE,140,3.0,7.0,44,0.00,,,0.00,0.000000,,2013-09-12 07:02:00,
2013-09-12 00:43:00,66.0,45.0,-100.00,East,91,3.0,6.0,46,0.00,,,0.00,0.000000,,2013-09-12 07:43:00,
2013-09-12 00:52:00,66.0,45.0,-100.00,East,91,3.0,6.0,46,0.00,,,0.00,0.000000,,2013-09-12 07:52:00,
2013-09-12 01:02:00,66.0,45.0,-100.00,East,91,3.0,6.0,46,0.00,,,0.00,0.000000,,2013-09-12 08:02:00,
2013-09-12 01:42:00,65.0,44.0,-100.00,SE,137,5.0,7.0,47,0.00,,,0.00,0.000000,,2013-09-12 08:42:00,
2013-09-12 01:52:00,65.0,44.0,-100.00,SE,137,5.0,7.0,47,0.00,,,0.00,0.000000,,2013-09-12 08:52:00,
2013-09-12 02:02:00,65.0,44.0,-100.00,SE,137,5.0,7.0,47,0.00,,,0.00,0.000000,,2013-09-12 09:02:00,
2013-09-12 02:43:00,63.0,44.0,-100.00,East,95,3.0,6.0,50,0.00,,,0.00,0.000000,,2013-09-12 09:43:00,
2013-09-12 02:53:00,63.0,44.0,-100.00,East,95,3.0,6.0,50,0.00,,,0.00,0.000000,,2013-09-12 09:53:00,
2013-09-12 03:03:00,63.0,44.0,-100.00,East,95,3.0,6.0,50,0.00,,,0.00,0.000000,,2013-09-12 10:03:00,
2013-09-12 03:43:00,63.0,44.0,-100.00,ESE,117,5.0,7.0,50,-99.99,,,0.00,0.000000,,2013-09-12 10:43:00,
2013-09-12 03:53:00,63.0,44.0,-100.00,ESE,117,5.0,7.0,50,-99.99,,,0.00,0.000000,,2013-09-12 10:53:00,
2013-09-12 04:03:00,63.0,44.0,-100.00,ESE,117,5.0,7.0,50,-99.99,,,0.00,0.000000,,2013-09-12 11:03:00,
2013-09-12 04:42:00,64.0,44.0,-100.00,East,101,4.0,7.0,49,0.00,,,0.00,0.000000,,2013-09-12 11:42:00,
2013-09-12 04:52:00,64.0,44.0,-100.00,East,101,4.0,7.0,49,0.00,,,0.00,0.000000,,2013-09-12 11:52:00,
2013-09-12 05:01:00,64.0,44.0,-100.00,East,101,4.0,7.0,49,0.00,,,0.00,0.000000,,2013-09-12 12:01:00,
2013-09-12 05:42:00,60.0,45.0,-100.00,SW,221,1.0,6.0,57,0.00,,,0.00,0.000000,,2013-09-12 12:42:00,
2013-09-12 05:52:00,60.0,45.0,-100.00,SW,221,1.0,6.0,57,0.00,,,0.00,0.000000,,2013-09-12 12:52:00,
2013-09-12 06:02:00,60.0,45.0,-100.00,SW,221,1.0,6.0,57,0.00,,,0.00,0.000000,,2013-09-12 13:02:00,
2013-09-12 06:42:00,61.0,45.0,-100.00,ESE,118,4.0,6.0,55,0.00,,,0.00,0.000000,,2013-09-12 13:42:00,
2013-09-12 06:52:00,61.0,45.0,-100.00,ESE,118,4.0,6.0,55,0.00,,,0.00,0.000000,,2013-09-12 13:52:00,
2013-09-12 07:02:00,61.0,45.0,-100.00,ESE,118,4.0,6.0,55,0.00,,,0.00,0.000000,,2013-09-12 14:02:00,
2013-09-12 07:42:00,63.0,46.0,-100.00,SE,141,3.0,5.0,54,0.00,,,0.00,6.000000,,2013-09-12 14:42:00,
2013-09-12 07:52:00,63.0,46.0,-100.00,SE,141,3.0,5.0,54,0.00,,,0.00,6.000000,,2013-09-12 14:52:00,
2013-09-12 08:02:00,63.0,46.0,-100.00,SE,141,3.0,5.0,54,0.00,,,0.00,6.000000,,2013-09-12 15:02:00,
2013-09-12 08:43:00,74.0,49.0,-100.00,WNW,290,2.0,4.0,41,0.00,,,0.00,106.000000,,2013-09-12 15:43:00,
2013-09-12 08:54:00,74.0,49.0,-100.00,WNW,290,2.0,4.0,41,0.00,,,0.00,106.000000,,2013-09-12 15:54:00,
2013-09-12 09:03:00,74.0,49.0,-100.00,WNW,290,2.0,4.0,41,0.00,,,0.00,106.000000,,2013-09-12 16:03:00,
2013-09-12 09:43:00,79.0,47.0,-100.00,NNE,21,7.0,11.0,33,0.00,,,0.00,266.000000,,2013-09-12 16:43:00,
2013-09-12 09:53:00,79.0,47.0,-100.00,NNE,21,7.0,11.0,33,0.00,,,0.00,266.000000,,2013-09-12 16:53:00,
2013-09-12 10:03:00,79.0,47.0,-100.00,NNE,21,7.0,11.0,33,0.00,,,0.00,266.000000,,2013-09-12 17:03:00,
2013-09-12 11:42:00,87.0,46.0,-100.00,ENE,64,13.0,20.0,24,0.00,,,0.00,562.000000,,2013-09-12 18:42:00,
2013-09-12 11:52:00,87.0,46.0,-100.00,ENE,64,13.0,20.0,24,0.00,,,0.00,562.000000,,2013-09-12 18:52:00,
2013-09-12 12:02:00,87.0,46.0,-100.00,ENE,64,13.0,20.0,24,0.00,,,0.00,562.000000,,2013-09-12 19:02:00,
2013-09-12 12:42:00,90.0,46.0,-100.00,ENE,59,9.0,18.0,22,0.00,,,0.00,661.000000,,2013-09-12 19:42:00,
2013-09-12 12:52:00,90.0,46.0,-100.00,ENE,59,9.0,18.0,22,0.00,,,0.00,661.000000,,2013-09-12 19:52:00,
2013-09-12 13:02:00,90.0,46.0,-100.00,ENE,59,9.0,18.0,22,0.00,,,0.00,661.000000,,2013-09-12 20:02:00,
2013-09-12 13:42:00,92.0,45.0,-100.00,East,98,6.0,13.0,20,0.00,,,0.00,707.000000,,2013-09-12 20:42:00,
2013-09-12 13:52:00,92.0,45.0,-100.00,East,98,6.0,13.0,20,0.00,,,0.00,707.000000,,2013-09-12 20:52:00,
2013-09-12 14:02:00,92.0,45.0,-100.00,East,98,6.0,13.0,20,0.00,,,0.00,707.000000,,2013-09-12 21:02:00,
2013-09-12 14:43:00,94.0,45.0,-100.00,East,95,9.0,15.0,19,0.00,,,0.00,736.000000,,2013-09-12 21:43:00,
2013-09-12 14:54:00,94.0,45.0,-100.00,East,95,9.0,15.0,19,0.00,,,0.00,736.000000,,2013-09-12 21:54:00,
2013-09-12 15:04:00,94.0,45.0,-100.00,East,95,9.0,15.0,19,0.00,,,0.00,736.000000,,2013-09-12 22:04:00,
2013-09-12 15:43:00,92.0,45.0,-100.00,East,87,9.0,15.0,20,0.00,,,0.00,570.000000,,2013-09-12 22:43:00,
2013-09-12 15:54:00,92.0,45.0,-100.00,East,87,9.0,15.0,20,0.00,,,0.00,570.000000,,2013-09-12 22:54:00,
2013-09-12 16:04:00,92.0,45.0,-100.00,East,87,9.0,15.0,20,0.00,,,0.00,570.000000,,2013-09-12 23:04:00,
2013-09-12 16:43:00,94.0,47.0,-100.00,East,82,9.0,15.0,20,0.00,,,0.00,556.000000,,2013-09-12 23:43:00,
2013-09-12 16:52:00,94.0,47.0,-100.00,East,82,9.0,15.0,20,0.00,,,0.00,556.000000,,2013-09-12 23:52:00,
2013-09-12 17:01:00,94.0,47.0,-100.00,East,82,9.0,15.0,20,0.00,,,0.00,556.000000,,2013-09-13 00:01:00,
2013-09-12 17:42:00,94.0,45.0,-100.00,ENE,69,5.0,14.0,19,0.00,,,0.00,489.000000,,2013-09-13 00:42:00,
2013-09-12 17:52:00,94.0,45.0,-100.00,ENE,69,5.0,14.0,19,0.00,,,0.00,489.000000,,2013-09-13 00:52:00,
2013-09-12 18:01:00,94.0,45.0,-100.00,ENE,69,5.0,14.0,19,0.00,,,0.00,489.000000,,2013-09-13 01:01:00,
2013-09-12 18:42:00,94.0,45.0,-100.00,NNW,333,1.0,10.0,19,0.00,,,0.00,290.000000,,2013-09-13 01:42:00,
2013-09-12 18:52:00,94.0,45.0,-100.00,NNW,333,1.0,10.0,19,0.00,,,0.00,290.000000,,2013-09-13 01:52:00,
2013-09-12 19:02:00,94.0,45.0,-100.00,NNW,333,1.0,10.0,19,0.00,,,0.00,290.000000,,2013-09-13 02:02:00,
2013-09-12 19:43:00,86.0,50.0,-100.00,South,186,7.0,13.0,29,0.00,,,0.00,116.000000,,2013-09-13 02:43:00,
2013-09-12 19:53:00,86.0,50.0,-100.00,South,186,7.0,13.0,29,0.00,,,0.00,116.000000,,2013-09-13 02:53:00,
2013-09-12 20:02:00,86.0,50.0,-100.00,South,186,7.0,13.0,29,0.00,,,0.00,116.000000,,2013-09-13 03:02:00,
2013-09-12 20:45:00,80.0,49.0,-100.00,NE,35,3.0,11.0,34,0.00,,,0.00,7.000000,,2013-09-13 03:45:00,
2013-09-12 20:55:00,80.0,49.0,-100.00,NE,35,3.0,11.0,34,0.00,,,0.00,7.000000,,2013-09-13 03:55:00,
2013-09-12 21:04:00,80.0,49.0,-100.00,NE,35,3.0,11.0,34,0.00,,,0.00,7.000000,,2013-09-13 04:04:00,
2013-09-12 21:44:00,71.0,47.0,-100.00,SE,138,3.0,5.0,43,0.00,,,0.00,0.000000,,2013-09-13 04:44:00,
2013-09-12 21:54:00,71.0,47.0,-100.00,SE,138,3.0,5.0,43,0.00,,,0.00,0.000000,,2013-09-13 04:54:00,
2013-09-12 22:03:00,71.0,47.0,-100.00,SE,138,3.0,5.0,43,0.00,,,0.00,0.000000,,2013-09-13 05:03:00,
2013-09-12 22:43:00,68.0,47.0,-100.00,SE,137,5.0,5.0,47,0.00,,,0.00,0.000000,,2013-09-13 05:43:00,
2013-09-12 22:53:00,68.0,47.0,-100.00,SE,137,5.0,5.0,47,0.00,,,0.00,0.000000,,2013-09-13 05:53:00,
2013-09-12 23:02:00,68.0,47.0,-100.00,SE,137,5.0,5.0,47,0.00,,,0.00,0.000000,,2013-09-13 06:02:00,
2013-09-12 23:42:00,67.0,47.0,-100.00,ESE,123,5.0,7.0,48,0.00,,,-99.99,0.000000,,2013-09-13 06:42:00,
2013-09-12 23:52:00,67.0,47.0,-100.00,ESE,123,5.0,7.0,48,0.00,,,-99.99,0.000000,,2013-09-13 06:52:00,